Skip Page Navigation
NASA JPL Caltech
NASA Logo - Jet Propulsion Laboratory + View the NASA Portal
+ Center for Near-Earth Object Studies
JPL Home Earth Solar System Stars & Galaxies Technology
JPL Solar System Dynamics
BODIES ORBITS EPHEMERIDES TOOLS PHYSICAL DATA DISCOVERY FAQ SITE MAP
IMPORTANT: The SSD Announcement email list is now available. Major changes are coming in the near future, including possible hostname and/or URL changes. To be notified of such changes, subscribe to this email list.

Please visit this page for more details.


JPL Small-Body Database Browser
Search: [ help ]  
48501 (1993 FM)
Classification: Main-belt Asteroid          SPK-ID: 2048501
Ephemeris | Orbit Diagram | Orbital Elements | Mission Design | Physical Parameters | Discovery Circumstances | Close-Approach Data ]

[ show orbit diagram ]
Orbital Elements at Epoch 2458600.5 (2019-Apr-27.0) TDB
Reference: JPL 29 (heliocentric ecliptic J2000)
 Element Value Uncertainty (1-sigma)   Units 
e .1851663618083975 3.2062e-08  
a 3.157083866993494 1.845e-08 au
q 2.572498133418322 1.0196e-07 au
i 1.209788721987203 4.9041e-06 deg
node 190.9205112813684 0.00018776 deg
peri 245.4057564079122 0.0001883 deg
M 321.0962625971063 1.4025e-05 deg
tp 2458821.919787505620
(2019-Dec-04.41978751)
8.0552e-05 TDB
period 2048.932283202545
5.61
1.7961e-05
4.917e-08
d
yr
n .1757012679000346 1.5402e-09 deg/d
Q 3.741669600568666 2.1866e-08 au
  Orbit Determination Parameters
   # obs. used (total)      1490  
   data-arc span      10700 days (29.30 yr)  
   first obs. used      1990-08-20  
   last obs. used      2019-12-06  
   planetary ephem.      DE431  
   SB-pert. ephem.      SB431-N16  
   condition code      0  
   norm. resid. RMS      .55786  
   source      ORB  
   producer      Otto Matic  
   solution date      2019-Dec-14 04:12:26  

Additional Information
 Earth MOID = 1.58792 au 
 Jupiter MOID = 1.53342 au 
 T_jup = 3.179 
[ show covariance matrix ]

Ephemeris | Orbit Diagram | Orbital Elements | Mission Design | Physical Parameters | Discovery Circumstances | Close-Approach Data ]

Physical Parameter Table
Parameter Symbol Value Units Sigma Reference Notes
absolute magnitude H 13.5   n/a MPO319663  
diameter diameter 10.387 km 0.120 urn:nasa:pds:neowise_diameters_albedos::2.0[mainbelt] (http://adsabs.harvard.edu/abs/2011ApJ...741...68M)  
geometric albedo albedo 0.071   0.013 urn:nasa:pds:neowise_diameters_albedos::2.0[mainbelt] (http://adsabs.harvard.edu/abs/2011ApJ...741...68M)  

48501 (1993 FM)          Discovered 1993-Mar-23 by Gilmore, A. C., Kilmartin, P. M. at Lake Tekapo
Reference: 20021120/Numbers.arcLast Updated: 2004-04-19

[ show close-approach data ]
Alternate Designations
 1993 FM = 1990 QC14 = 2001 QC46 
Ephemeris | Orbit Diagram | Orbital Elements | Mission Design | Physical Parameters | Discovery Circumstances | Close-Approach Data ]
ABOUT SSD CREDITS/AWARDS PRIVACY/COPYRIGHT GLOSSARY LINKS
FirstGov 2020-Jan-29 02:26 UT
(server date/time)  
NASA Home Page
Site Manager:   Ryan S. Park
Webmaster  Alan B. Chamberlin